Regional Weather Roundup
Issued by NWS

Home | Current Version | Previous Version | Graphics & Text | Print | Product List | Glossary On
Versions: 1 2 3 4 5 6 7 8 9 10 11 12 13 14 15 16 17 18 19 20 21 22 23 24 25 26 27
000
ASUS45 KCYS 231910
RWRWY

WYOMING REGIONAL WEATHER ROUNDUP
NATIONAL WEATHER SERVICE CHEYENNE WY
100 PM MDT FRI JUN 23 2017

NOTE:  "FAIR" INDICATES FEW OR NO CLOUDS BELOW 12,000 FEET
WITH NO SIGNIFICANT WEATHER AND/OR OBSTRUCTIONS TO VISIBILITY.

WYZ001-232000-
YELLOWSTONE NATIONAL PARK

CITY           SKY/WX    TMP DP  RH WIND       PRES   REMARKS
LK YELLOWSTONE   N/A     54  30  40 VRB6      30.36S
W YELLOWSTONE  NOT AVBL

$$
WYZ002>013-054>058-071-098>099-232000-
NORTHERN WYOMING

CITY           SKY/WX    TMP DP  RH WIND       PRES   REMARKS
JACKSON        SUNNY     64  27  24 SW13      30.26F
CODY           FAIR      62  25  24 N8        30.29F
GREYBULL       FAIR      69  23  17 NW14G23   30.23F
WORLAND        FAIR      67  20  16 VRB6      30.25F
SHERIDAN       FAIR      64  35  34 N15       30.25F
BUFFALO        FAIR      61  33  35 N17G29    30.28S
GILLETTE       FAIR      64  30  27 N20G32    30.24F
NEWCASTLE      FAIR      61  30  31 N15G26    30.24S

$$
WYZ014>020-022>026-101>103-232000-
CENTRAL WYOMING

CITY           SKY/WX    TMP DP  RH WIND       PRES   REMARKS
BIG PINEY      FAIR      65  34  31 CALM      30.30F
PINEDALE       FAIR      63  32  31 NW6       30.31F
DUBOIS         FAIR      59  32  36 SE9G16    30.28F
LANDER         FAIR      63  35  35 VRB5      30.26F
RIVERTON       FAIR      61  30  31 CALM      30.28F
CASPER         FAIR      64  30  27 MISG      30.28S
DOUGLAS        FAIR      66  29  24 NW18G24   30.27F

$$
WYZ021-027>030-104>119-232000-
SOUTHERN WYOMING

CITY           SKY/WX    TMP DP  RH WIND       PRES   REMARKS
EVANSTON       FAIR      71  34  25 MISG      30.29F
KEMMERER         N/A     66  30  26 SW14      30.31F
FORT BRIDGER   FAIR      70  30  22 W6        30.33F
ROCK SPRINGS   FAIR      67  29  24 SW5       30.29S
DIXON          FAIR      73  30  20 SW5       30.28S
RAWLINS        FAIR      68  32  26 N8        30.29F
SARATOGA       FAIR      68  32  26 N13G22    30.29S
LARAMIE        FAIR      65  34  31 N13G22    30.27F
CHEYENNE       FAIR      61  39  44 VRB3      30.27F
TORRINGTON     FAIR      68  30  24 W9G21     30.21F
PINE BLUFFS    CLOUDY    61  37  41 N6        30.28R

$$




USA.gov is the U.S. government's official web portal to all federal, state and local government web resources and services.